Tracking 19794 objects as of 23-Jul-2019
HD Live streaming from Space Station
objects crossing your sky now

FENGYUN 1C DEB

Track FENGYUN 1C DEB now!
10-day predictions


NORAD ID: 35143
Int'l Code: 1999-025DLX
Perigee: 738.0 km
Apogee: 795.2 km
Inclination: 98.8 °
Period: 100.0 minutes
Semi major axis: 7137 km
RCS: 0.0061 m2 (small)
Launch date: May 10, 1999
Source: People's Republic of China (PRC)
Launch site: Taiyaun Space Center, China (TSC)

Note: This is SATELLITE DEBRIS
aabbcc
Your satellite tracking list
Your tracking list is empty




NASA's NSSDC Master Catalog

Two Line Element Set (TLE):
1 35143U 99025DLX 12081.25198882 +.00024654 +00000-0 +77859-2 0  9995
2 35143 098.7711 096.9802 0040041 215.7176 143.8608 14.39715622203637
Source of the keplerian elements: AFSPC